[[{"header":{"parameterUnit":"m.s-1","parameterCategory":1,"la1":30.2991,"la2":30.254,"lo1":-89.0895,"lo2":-89.0444,"dy":0.0017,"dx":0.0017,"nx":28,"ny":28,"refTime":"2024-04-29T03:00:00:Z","depth":0,"parameterNumber":2,"parameterNumberName":"U-component_of_WINDS"},"data":[0,0,0,0,0,0,0,0,0,0,0,0,0,0,0,0,0,0,0,0,0,0,0,0,0,0,0,0,0,0,0,0,0,0,0,0,0,0,0,0,0,0,0,0,0,0,0,0,0,0,0,0,0,0,0,0,0,0,-6.2485,-6.2486,0,-6.2613,-6.2614,-6.2616,-6.2581,-6.2578,-6.2576,-6.2573,-6.2701,-6.2707,-6.2713,0,0,0,0,0,0,0,0,0,0,0,0,0,-6.2206,-6.2212,-6.2485,-6.2486,-6.2488,-6.2613,-6.2615,-6.2616,-6.2581,-6.2578,-6.2575,-6.2572,-6.2699,-6.2706,-6.2713,0,0,0,0,0,0,0,0,0,0,0,0,0,-6.233,-6.2214,-6.2484,-6.2485,-6.2487,-6.2612,-6.2615,-6.2617,-6.2582,-6.2578,-6.2574,-6.257,-6.2697,-6.2706,-6.2714,-6.2846,0,0,-6.2741,-6.2745,0,0,0,0,0,0,0,0,-6.2323,-6.234,-6.2484,-6.2486,-6.2487,-6.2577,-6.2563,-6.2693,-6.2583,-6.2546,-6.2573,-6.2569,-6.2663,-6.2674,-6.2707,-6.2852,-6.2857,-6.2742,-6.2747,-6.2751,-6.2753,0,0,0,0,0,0,0,-6.2315,-6.2335,-6.2535,-6.2486,-6.2488,-6.2479,-6.2492,-6.2588,-6.2624,-6.2549,-6.2546,-6.2562,-6.2663,-6.2698,-6.2709,-6.2859,-6.2741,-6.2749,-6.2755,-6.2758,-6.3117,-6.3121,0,0,0,0,0,0,-6.2305,-6.2328,-6.2531,-6.2539,-6.2394,-6.2487,-6.2502,-6.2552,-6.2623,-6.263,-6.2565,-6.256,-6.2685,-6.2699,-6.2714,-6.2871,-6.2751,-6.2759,-6.2764,-6.3113,-6.3118,-6.3123,0,0,0,0,0,0,-6.2299,-6.2324,-6.2526,-6.2433,-6.2458,-6.2496,-6.2553,-6.2557,-6.2592,-6.2636,-6.2642,-6.2595,-6.2683,-6.2701,-6.2813,-6.2875,-6.2763,-6.2771,-6.3108,-6.3114,-6.312,-6.3187,0,0,0,0,0,0,-6.2292,-6.2322,-6.2373,-6.2434,-6.2463,-6.2624,-6.2556,-6.2562,-6.2607,-6.2602,-6.2665,-6.2672,-6.2681,-6.28,-6.2822,-6.2885,-6.2777,-6.3102,-6.3111,-6.3118,-6.3179,-6.3194,-6.3208,0,0,0,0,0,-6.2282,-6.2386,-6.2375,-6.24,-6.2528,-6.2628,-6.2644,-6.2653,-6.2612,-6.2663,-6.2692,-6.267,-6.2865,-6.2812,-6.2836,-6.2902,-6.3098,-6.3108,-6.3118,-6.3172,-6.3191,-6.3207,0,0,0,0,0,0,-6.2329,-6.2394,-6.2383,-6.251,-6.2564,-6.2622,-6.2686,-6.2673,-6.2739,-6.2731,-6.2739,-6.2754,-6.2867,-6.2897,-6.2836,-6.3033,-6.2976,-6.2991,-6.3009,-6.3027,-6.3042,-6.3031,-6.2785,0,0,0,0,0,-6.2354,-6.2431,-6.2483,-6.2591,-6.2618,-6.2648,-6.2692,-6.2695,-6.275,-6.2772,-6.2809,-6.2862,-6.2936,-6.2984,-6.3054,-6.3184,-6.3196,-6.3242,-6.3256,-6.3268,-6.328,-6.3349,-6.3369,-6.3154,-6.3154,-6.3154,0,0,-6.2407,-6.2452,-6.25,-6.2601,-6.2643,-6.2721,-6.2667,-6.2752,-6.281,-6.2785,-6.2892,-6.2921,-6.2981,-6.3103,-6.3158,-6.313,-6.3342,-6.328,-6.3289,-6.3295,-6.3361,-6.3381,-6.34,-6.3161,-6.316,-6.3159,0,0,-6.2542,-6.2585,-6.2679,-6.2722,-6.2787,-6.2806,-6.2828,-6.2889,-6.2907,-6.3015,-6.2998,-6.3067,-6.3193,-6.3237,-6.3275,-6.3429,-6.3411,-6.3452,-6.3526,-6.3593,-6.361,-6.3625,-6.3678,-6.3697,-6.3464,-6.3464,-6.3464,0,-6.2599,-6.2717,-6.2728,-6.2815,-6.2859,-6.2842,-6.2936,-6.2977,-6.3061,-6.3092,-6.3061,-6.3219,-6.3259,-6.3389,-6.3426,-6.3459,-6.3484,-6.3443,-6.3607,-6.3622,-6.3637,-6.3687,-6.3707,-6.3469,-6.3468,-6.3468,-6.3467,0,-6.2783,-6.2865,-6.2933,-6.3015,-6.3067,-6.3157,-6.3181,-6.3233,-6.3232,-6.3254,-6.3364,-6.3411,-6.349,-6.3522,-6.3522,-6.3653,-6.3633,-6.3605,-6.3547,-6.3661,-6.3708,-6.3728,-6.3475,-6.3473,-6.3472,-6.3471,0,0,-6.2949,-6.3037,-6.3061,-6.3098,-6.3169,-6.3232,-6.3321,-6.3399,-6.3443,-6.3502,-6.3575,-6.3684,-6.3658,-6.3702,-6.3707,-6.3767,-6.3883,-6.3731,-6.3732,-6.3755,-6.4028,-6.4047,-6.4069,-6.3873,-6.3876,-6.388,-6.4022,0,-6.3088,-6.3246,-6.3258,-6.34,-6.3475,-6.346,-6.3538,-6.3589,-6.3613,-6.3679,-6.3705,-6.3781,-6.3742,-6.3769,-6.3828,-6.3856,-6.3937,-6.3847,-6.3939,-6.3942,-6.3921,-6.4094,-6.4114,-6.4246,-6.4041,-6.4044,-6.4046,0,-6.3272,-6.3337,-6.3486,-6.3545,-6.3577,-6.3647,-6.3719,-6.3784,-6.3842,-6.3854,-6.3905,-6.3901,-6.3992,-6.3933,-6.4057,-6.3995,-6.4034,-6.4054,-6.4059,-6.4066,-6.3999,-6.4102,-6.4289,-6.4307,-6.4076,-6.4073,-6.4071,0,-6.3375,-6.35,-6.3605,-6.3637,-6.371,-6.3759,-6.3792,-6.3846,-6.3892,-6.3956,-6.3985,-6.4059,-6.4098,-6.4154,-6.417,-6.4127,-6.4293,-6.4236,-6.4305,-6.4304,-6.4338,-6.4335,-6.453,-6.4368,-6.4368,-6.4367,-6.4367,0,-6.3528,-6.3619,-6.3652,-6.3716,-6.3818,-6.3832,-6.3931,-6.3961,-6.4009,-6.4078,-6.4071,-6.4136,-6.4155,-6.4223,-6.4236,-6.4335,-6.4354,-6.4366,-6.4367,-6.4365,-6.4363,-6.4388,-6.4378,-6.4373,-6.4371,-6.437,-6.4369,0,-6.3659,-6.3685,-6.3798,-6.3859,-6.3876,-6.3948,-6.3999,-6.406,-6.4084,-6.4171,-6.4192,-6.4228,-6.4308,-6.433,-6.4426,-6.4435,-6.4551,-6.4546,-6.4531,-6.453,-6.4597,-6.4589,-6.4813,-6.4842,-6.4663,-6.4665,-6.4666,0,-6.3753,-6.3823,-6.3891,-6.3937,-6.3972,-6.4046,-6.4094,-6.4111,-6.416,-6.4231,-6.4284,-6.4363,-6.4426,-6.4554,-6.4588,-6.4661,-6.4656,-6.4729,-6.4666,-6.4661,-6.4654,-6.4648,-6.4654,-6.474,-6.4742,-6.4743,-6.4745,0,-6.3917,-6.3927,-6.3996,-6.407,-6.4126,-6.4185,-6.4242,-6.428,-6.4304,-6.436,-6.4442,-6.4492,-6.4589,-6.4667,-6.4741,-6.4773,-6.4763,-6.4765,-6.4784,-6.478,-6.4768,-6.4773,-6.4561,-6.4759,-6.4757,-6.4756,-6.4755,-6.4755,-6.4031,-6.4092,-6.4149,-6.4226,-6.4271,-6.4324,-6.4384,-6.4415,-6.4484,-6.4565,-6.4571,-6.4659,-6.4715,-6.4814,-6.485,-6.4919,-6.4897,-6.4925,-6.4932,-6.4938,-6.4942,-6.476,-6.4933,-6.4932,-6.4932,-6.4932,-6.4931,0,-6.4192,-6.4229,-6.43,-6.4379,-6.4439,-6.4426,-6.4488,-6.4539,-6.4617,-6.467,-6.4734,-6.4827,-6.4903,-6.4944,-6.5019,-6.5065,-6.5062,-6.5084,-6.5079,-6.5087,-6.4959,-6.4933,-6.5085,-6.5085,-6.5085,-6.5085,-6.5085,-6.5085,-6.4283,-6.4385,-6.4402,-6.4525,-6.4561,-6.4648,-6.4684,-6.4732,-6.4775,-6.488,-6.4943,-6.497,-6.5018,-6.5097,-6.5165,-6.5175,-6.5202,-6.5226,-6.5233,-6.5112,-6.5096,-6.5081,-6.5057,-6.5232,-6.5233,-6.5355,-6.5356,-6.5357]},{"header":{"parameterUnit":"m.s-1","parameterCategory":1,"la1":30.2991,"la2":30.254,"lo1":-89.0895,"lo2":-89.0444,"dy":0.0017,"dx":0.0017,"nx":28,"ny":28,"refTime":"2024-04-29T03:00:00:Z","depth":0,"parameterNumber":3,"parameterNumberName":"V-component_of_WINDS"},"data":[0,0,0,0,0,0,0,0,0,0,0,0,0,0,0,0,0,0,0,0,0,0,0,0,0,0,0,0,0,0,0,0,0,0,0,0,0,0,0,0,0,0,0,0,0,0,0,0,0,0,0,0,0,0,0,0,0,0,4.4432,4.4434,0,4.4536,4.4537,4.4538,4.4528,4.4526,4.4525,4.4523,4.4627,4.4631,4.4635,0,0,0,0,0,0,0,0,0,0,0,0,0,4.4225,4.4229,4.4432,4.4434,4.4435,4.4535,4.4537,4.4538,4.4528,4.4526,4.4524,4.4523,4.4625,4.463,4.4635,0,0,0,0,0,0,0,0,0,0,0,0,0,4.432,4.423,4.4432,4.4442,4.4444,4.4535,4.4537,4.4539,4.4529,4.4526,4.4524,4.4522,4.4624,4.463,4.4636,4.4723,0,0,4.4656,4.4658,0,0,0,0,0,0,0,0,4.4315,4.4328,4.4439,4.4442,4.4444,4.4517,4.4502,4.4601,4.4529,4.4496,4.4523,4.452,4.4592,4.4601,4.4625,4.4728,4.4733,4.4656,4.466,4.4663,4.4665,0,0,0,0,0,0,0,4.4308,4.4323,4.4473,4.4441,4.4444,4.4441,4.4452,4.452,4.4556,4.4499,4.4499,4.4511,4.4593,4.4619,4.4628,4.4734,4.4656,4.4662,4.4666,4.4668,4.4914,4.4917,0,0,0,0,0,0,4.4299,4.4318,4.447,4.4476,4.4372,4.4446,4.4459,4.4496,4.4555,4.4562,4.4513,4.451,4.4609,4.462,4.4631,4.4738,4.4663,4.4669,4.4672,4.4912,4.4915,4.4918,0,0,0,0,0,0,4.4295,4.4313,4.4466,4.4397,4.4416,4.4453,4.4494,4.4499,4.4525,4.4566,4.4572,4.4534,4.4608,4.4622,4.4701,4.4741,4.4672,4.4677,4.4909,4.4913,4.4917,4.4951,0,0,0,0,0,0,4.4289,4.4311,4.4345,4.4398,4.442,4.4534,4.4497,4.4503,4.4537,4.4534,4.4587,4.4594,4.4607,4.4691,4.4707,4.4749,4.4682,4.4905,4.491,4.4915,4.4947,4.4956,4.4964,0,0,0,0,0,4.4282,4.435,4.4347,4.4366,4.4463,4.4537,4.4549,4.4564,4.454,4.4574,4.46,4.4592,4.4734,4.47,4.4717,4.4761,4.4903,4.4909,4.4915,4.4943,4.4954,4.4964,0,0,0,0,0,0,4.4301,4.4357,4.4354,4.4442,4.4485,4.4535,4.4578,4.4576,4.4625,4.4621,4.4636,4.4648,4.4728,4.4752,4.4713,4.4849,4.4815,4.4825,4.483,4.4841,4.485,4.4842,4.4688,0,0,0,0,0,4.4316,4.4371,4.4417,4.449,4.4512,4.4542,4.4574,4.4582,4.4626,4.4644,4.4676,4.4719,4.4773,4.4809,4.4861,4.495,4.4962,4.4989,4.4998,4.5005,4.5013,4.5063,4.5076,4.4938,4.4938,4.4938,0,0,4.4346,4.4384,4.4418,4.4495,4.4529,4.4586,4.4557,4.4618,4.466,4.4653,4.473,4.4755,4.4803,4.4888,4.4927,4.4911,4.5054,4.5013,4.5018,4.5023,4.507,4.5083,4.5095,4.4942,4.4942,4.4941,0,0,4.4431,4.4465,4.453,4.4565,4.4617,4.4636,4.4652,4.4703,4.4719,4.4796,4.4792,4.4842,4.4936,4.4971,4.5001,4.51,4.5094,4.5116,4.5161,4.521,4.522,4.523,4.5266,4.5278,4.5124,4.5124,4.5124,0,4.4463,4.4549,4.4564,4.4626,4.466,4.4657,4.4723,4.4756,4.4822,4.4845,4.4827,4.4944,4.4977,4.507,4.5094,4.5118,4.5136,4.511,4.5218,4.5228,4.5237,4.5271,4.5284,4.5127,4.5127,4.5126,4.5126,0,4.4585,4.4645,4.4691,4.4756,4.4795,4.4858,4.4883,4.4921,4.4925,4.4946,4.5025,4.5064,4.5125,4.5147,4.5152,4.5241,4.523,4.5214,4.518,4.5252,4.5284,4.5298,4.513,4.5129,4.5129,4.5128,0,0,4.4685,4.4758,4.4775,4.4804,4.4861,4.4908,4.4971,4.5031,4.5063,4.5109,4.5162,4.5241,4.5228,4.5262,4.5271,4.5313,4.5389,4.5292,4.5294,4.5309,4.549,4.5502,4.5517,4.5385,4.5388,4.539,4.5486,0,4.4776,4.4889,4.4905,4.5005,4.506,4.5058,4.5113,4.5154,4.5176,4.5225,4.5249,4.5305,4.5282,4.5303,4.5345,4.5371,4.5426,4.5364,4.5435,4.5437,4.5423,4.5533,4.5546,4.5635,4.5499,4.5501,4.5503,0,4.4898,4.4948,4.5053,4.5103,4.5127,4.5177,4.5233,4.528,4.5326,4.5339,4.5378,4.5381,4.5446,4.541,4.55,4.5458,4.5488,4.5505,4.5509,4.5516,4.5475,4.5544,4.5663,4.5677,4.5523,4.5521,4.5519,0,4.4961,4.5054,4.513,4.5155,4.5215,4.525,4.5277,4.532,4.5355,4.5404,4.5427,4.5483,4.5513,4.5556,4.5574,4.5546,4.5664,4.5628,4.5676,4.5676,4.5701,4.5699,4.5827,4.572,4.5719,4.5719,4.5719,0,4.5062,4.5126,4.5159,4.5206,4.5278,4.5295,4.5366,4.5391,4.543,4.5481,4.5483,4.553,4.5551,4.5602,4.5617,4.5689,4.5703,4.5715,4.5718,4.5715,4.5714,4.5735,4.573,4.5723,4.5722,4.5721,4.5721,0,4.5145,4.5169,4.5252,4.5302,4.5316,4.5367,4.541,4.5455,4.5476,4.554,4.5556,4.5589,4.5649,4.5672,4.5744,4.5754,4.5838,4.5836,4.5823,4.5824,4.5871,4.5866,4.6017,4.6038,4.5916,4.5917,4.5918,0,4.5208,4.5258,4.5313,4.5348,4.5376,4.5432,4.5468,4.5486,4.5523,4.558,4.5618,4.5678,4.5727,4.5823,4.5853,4.5909,4.5908,4.5957,4.5916,4.5912,4.591,4.5907,4.5912,4.5965,4.5966,4.5967,4.5968,0,4.5317,4.5327,4.5379,4.5436,4.5479,4.5524,4.5568,4.5596,4.5621,4.5663,4.5725,4.5763,4.5838,4.5897,4.5955,4.5981,4.5979,4.598,4.5995,4.5992,4.5983,4.5989,4.5844,4.5977,4.5976,4.5975,4.5975,4.5975,4.5393,4.5437,4.5483,4.5542,4.5577,4.5618,4.5663,4.5689,4.5742,4.5804,4.5812,4.5878,4.5923,4.6,4.6029,4.6081,4.6068,4.6088,4.6093,4.6098,4.6102,4.5974,4.6091,4.6091,4.6091,4.6091,4.6091,0,4.5502,4.5532,4.5585,4.5647,4.5693,4.5687,4.5736,4.5774,4.5833,4.5875,4.5924,4.5995,4.6052,4.6087,4.6145,4.618,4.618,4.6195,4.6192,4.6199,4.611,4.6092,4.6193,4.6193,4.6193,4.6193,4.6193,4.6193,4.5565,4.564,4.5655,4.5748,4.5777,4.5843,4.5871,4.5909,4.5943,4.6022,4.607,4.6093,4.6132,4.6193,4.6245,4.6254,4.6276,4.6291,4.6299,4.6215,4.6205,4.6195,4.6178,4.6296,4.6296,4.6383,4.6384,4.6385]}]]